Temperature
13 14 14 14 14 14 14 14 14 13 13 13 13 13 13 13 13 13 14 14 14 14 14 14 14 14 14 14 14 14 13 13 13 13 13 13 13 13 13 13 12 12 12
13 13 13 13 13 13 13 13 13 13 13 13 13 13 13 13 13 13 13 14 14 14 14 14 13 13 13 13 13 13 13 13 13 13 13 13 13 13 13 13 13 12 12
12 12 12 12 13 13 13 13 13 13 13 13 13 13 13 13 13 13 13 13 13 14 13 13 13 13 13 13 13 13 13 13 13 13 13 13 13 13 13 12 12 12 12
12 12 12 12 12 12 12 13 13 12 12 13 13 12 12 13 13 13 13 13 13 13 13 13 13 13 13 13 13 13 13 13 13 13 13 13 13 13 12 12 12 12 12
11 11 11 11 12 12 12 12 12 12 12 12 12 12 12 12 12 12 12 12 13 13 13 13 13 13 13 13 13 13 13 13 13 13 13 12 12 12 12 12 12 12 12
11 11 11 11 11 11 11 12 12 12 12 12 12 12 12 12 12 12 12 12 12 13 13 13 13 13 13 13 13 12 12 13 12 12 12 12 12 12 12 12 12 12 12
10 10 10 11 11 11 11 11 11 11 11 11 11 11 12 12 12 12 12 12 12 12 12 12 12 12 12 12 12 12 12 12 12 12 12 12 12 12 12 12 12 12 12
10 10 10 10 10 10 10 11 11 11 11 11 11 11 11 11 11 12 12 12 12 12 12 12 12 12 12 12 12 12 12 12 12 12 12 12 12 12 12 12 12 11 11
9 9 10 10 10 10 10 10 10 10 10 11 11 11 11 11 11 11 11 12 12 12 12 11 11 11 12 12 12 12 12 12 12 12 11 11 11 11 11 11 11 11 11
8 9 9 9 9 9 9 10 10 10 10 10 10 10 10 11 10 10 11 11 11 11 11 11 11 11 11 11 11 11 11 11 11 11 11 11 11 11 11 11 11 11 11
8 8 8 8 9 9 9 9 9 9 9 9 10 10 10 10 10 10 10 10 10 11 11 11 11 11 11 11 11 11 11 11 11 11 11 11 11 11 11 11 11 11 10
7 7 7 8 8 8 8 8 8 9 9 9 9 9 9 9 9 9 10 10 10 10 10 10 10 10 10 10 10 11 11 11 11 11 10 10 10 10 10 10 10 10 10
7 7 7 7 7 7 8 8 8 8 8 8 8 8 9 9 9 9 9 9 9 9 10 10 10 10 10 10 10 10 10 10 10 10 10 10 10 10 10 10 10 10 10
6 6 6 7 7 7 7 7 7 7 8 8 8 8 8 8 8 9 9 9 8 8 8 9 9 9 9 9 10 10 10 10 10 10 9 10 9 10 10 10 10 10 9
6 6 6 6 6 6 7 6 7 7 7 7 7 7 7 8 8 8 8 8 8 8 8 8 8 8 8 9 9 9 9 9 9 9 9 9 9 9 9 9 9 9 9
5 5 6 6 6 6 6 6 6 6 6 6 6 7 7 7 7 7 7 7 7 7 7 8 8 8 8 8 8 8 8 8 9 9 9 9 9 9 8 9 8 8 8
5 5 5 5 5 5 5 6 6 6 5 6 6 6 6 6 6 6 7 7 7 7 6 7 7 7 7 7 7 7 7 8 8 8 8 8 8 8 8 8 8 8 8
5 4 4 4 4 5 5 5 5 5 5 5 5 5 5 6 6 6 6 6 6 6 6 6 6 6 6 6 7 7 7 7 7 7 7 8 8 7 7 7 7 7 7
4 4 4 4 4 4 4 4 4 4 4 4 4 5 5 5 5 5 5 5 5 5 5 5 5 5 5 5 6 6 6 6 6 6 6 7 7 7 7 7 7 7 7
3 4 4 3 3 3 4 4 4 4 4 4 4 4 4 4 4 4 4 4 4 4 4 4 4 4 4 4 4 5 5 5 5 6 6 6 6 6 6 6 6 6 6
3 3 3 3 3 3 3 3 3 3 3 3 3 3 3 3 4 4 4 3 3 3 3 3 3 3 3 3 3 3 3 4 5 5 5 5 5 5 6 6 6 6 6
3 3 3 3 3 3 3 3 3 3 3 3 3 3 3 3 3 3 3 3 3 3 3 2 2 2 2 2 2 2 2 2 3 3 3 4 4 4 5 5 5 5 5
2 2 2 2 2 2 2 2 2 2 2 2 2 2 2 2 2 2 2 2 2 2 2 2 2 2 2 2 1 1 1 1 2 2 2 3 3 3 4 4 4 5 5
1 1 2 2 2 2 2 2 2 2 2 2 2 2 2 2 2 1 2 2 2 2 2 1 1 1 1 1 1 1 1 1 1 2 1 1 2 2 3 3 4 4 4
1 1 1 1 1 1 1 1 1 1 1 1 1 1 1 1 1 1 1 1 1 1 1 1 1 1 1 1 0 0 0 -0 0 1 1 0 1 1 2 2 3 3 3
1 1 1 1 1 1 1 1 1 1 1 1 1 1 1 1 0 0 0 0 0 0 0 0 0 0 0 0 -0 -0 -1 -1 -1 -1 -0 -1 -0 -0 -0 1 1 2 2
Wind_Speed
6 6 6 6 8 8 9 9 10 11 11 12 12 12 12 12 11 10 8 12 14 13 13 13 13 13 13 12 12 11 11 11 10 10 9 9 9 8 7 6 5 5 5
6 6 6 6 7 8 9 9 10 9 9 9 11 12 12 11 11 11 10 11 14 14 13 13 13 13 14 14 13 12 12 11 11 11 10 10 10 9 9 8 8 7 7
7 7 7 7 7 8 9 9 10 9 8 8 10 10 10 11 11 11 11 10 11 14 15 14 14 14 14 15 14 14 13 12 11 11 10 10 10 10 10 10 9 9 8
7 6 6 7 8 8 8 8 8 8 8 8 9 9 8 9 11 11 11 11 10 10 13 15 15 14 14 15 15 15 14 13 12 11 11 10 10 10 10 10 10 10 10
6 6 6 6 8 7 7 7 8 8 8 9 8 8 8 8 9 10 11 11 11 10 11 13 15 15 15 15 15 15 15 14 14 13 13 12 12 12 12 11 11 11 11
5 5 5 6 7 7 7 7 8 8 7 8 7 8 8 8 8 9 10 9 10 11 11 11 12 13 16 15 15 15 15 15 15 15 14 14 14 14 14 14 14 13 13
5 5 5 6 6 7 8 8 8 8 7 7 6 6 7 8 8 8 8 8 9 10 11 11 11 11 11 15 16 15 15 15 15 16 16 16 16 15 15 15 15 14 14
5 4 5 5 6 6 7 7 7 7 6 6 5 5 5 6 7 8 8 8 9 8 9 10 11 11 11 10 11 14 15 15 16 16 16 17 17 17 17 16 16 16 16
5 5 5 5 5 6 6 7 7 8 7 6 6 5 5 6 4 6 9 8 8 8 8 9 11 11 12 10 10 11 14 15 16 17 17 16 17 18 18 18 18 18 17
5 5 5 5 5 5 6 6 7 7 7 7 6 6 5 3 4 4 6 8 9 9 9 8 9 11 12 11 11 10 11 14 16 17 18 18 18 18 19 19 19 18 18
5 5 5 5 5 5 6 6 7 7 7 7 6 5 6 5 6 6 6 6 7 7 8 8 7 8 10 11 10 11 12 14 16 17 18 19 19 19 19 19 19 19 18
4 5 5 5 5 5 5 6 6 7 7 7 7 6 6 6 6 7 7 6 6 6 7 6 7 7 8 9 11 11 11 13 15 17 18 18 18 18 19 19 19 19 19
4 5 5 5 5 5 5 5 5 6 7 7 7 7 7 7 6 7 7 6 6 5 5 6 6 6 7 8 9 10 11 13 14 16 17 17 18 18 18 19 19 19 19
5 6 6 6 6 6 5 5 5 5 5 6 7 7 6 7 7 7 7 6 6 6 6 6 5 6 6 7 9 10 10 12 13 15 16 16 16 17 16 17 18 18 18
5 6 6 6 6 6 6 6 5 6 6 6 6 6 7 6 6 6 6 6 7 7 7 6 5 5 5 7 7 9 9 10 12 14 14 14 15 16 16 16 16 17 17
5 6 6 6 6 6 6 6 6 6 6 6 5 6 7 6 6 5 6 6 7 7 7 5 5 5 5 5 7 9 10 10 11 13 14 14 15 16 17 17 17 17 17
6 6 5 6 6 6 6 6 6 6 6 6 6 6 7 7 6 5 5 5 6 7 8 6 6 6 6 6 6 8 9 9 9 11 13 14 14 16 16 16 17 17 18
5 5 5 5 5 6 6 6 6 6 6 6 6 7 7 6 6 6 6 6 6 7 8 8 6 5 7 7 7 7 7 8 9 11 13 14 15 16 17 17 18 18 18
5 5 4 4 4 5 5 5 6 6 6 6 6 6 6 6 6 5 6 6 5 5 6 7 7 5 5 5 6 7 7 7 9 10 11 13 14 16 18 19 19 19 18
5 5 4 4 4 3 3 4 4 5 5 5 5 5 6 6 6 6 5 5 5 5 5 6 6 5 5 5 5 6 6 7 8 8 9 10 13 15 17 18 18 19 19
4 4 4 3 3 2 3 3 3 4 4 4 3 3 3 3 3 3 3 4 4 4 4 4 5 5 5 4 5 5 7 7 8 6 6 7 9 9 11 14 16 17 18
4 3 3 3 3 2 2 3 3 3 3 3 3 3 3 2 2 2 3 4 4 5 5 5 5 6 6 6 6 6 7 7 7 4 7 9 8 9 9 9 12 14 16
4 3 3 3 3 3 3 2 2 2 2 3 3 3 2 2 2 3 3 3 4 4 5 6 7 7 7 6 7 7 8 8 9 7 7 9 8 9 8 10 12 13 14
3 3 3 3 3 3 3 2 2 2 2 2 3 3 3 3 3 3 3 3 3 3 4 5 5 6 6 6 7 8 8 9 9 7 7 8 8 8 9 10 12 13 13
3 3 3 3 3 3 3 2 2 1 1 2 2 2 3 3 3 3 3 3 3 3 3 4 5 6 7 7 6 5 6 6 7 7 5 6 7 8 9 9 8 10 12
3 3 3 2 2 3 3 3 3 1 1 2 2 2 2 3 3 3 3 3 4 4 4 4 4 5 5 5 6 6 5 6 6 6 5 5 6 6 6 6 7 8 9
Wind_Direction
245 241 241 235 229 225 220 220 219 217 216 217 218 218 217 217 217 218 211 198 210 217 220 219 219 216 215 217 218 218 218 220 223 226 228 231 234 238 245 253 261 272 282
250 246 242 240 237 232 229 225 222 221 220 220 222 221 221 222 222 221 222 207 209 217 221 223 224 224 220 219 221 221 223 225 228 231 234 237 239 240 244 248 254 261 267
253 248 242 239 239 234 231 231 226 223 222 219 225 228 227 225 224 224 224 222 216 216 220 225 226 228 227 225 224 225 226 227 229 233 236 240 243 245 246 249 252 259 262
260 254 247 242 241 238 231 229 226 220 219 220 223 223 228 229 228 226 225 223 222 220 217 221 226 229 229 229 228 225 225 225 227 230 234 238 242 247 250 252 253 256 259
264 257 254 253 245 239 232 229 226 222 221 221 224 225 224 227 228 226 227 226 224 223 224 215 218 226 229 230 232 231 227 227 228 231 235 239 243 248 251 253 254 258 259
268 259 257 255 248 240 235 230 228 223 225 223 225 229 228 227 227 225 225 226 225 225 226 226 222 224 226 230 234 236 237 235 233 233 236 240 244 248 251 253 255 257 259
270 258 256 254 249 238 236 235 231 226 224 220 224 231 234 231 229 226 223 225 225 225 226 227 228 227 225 224 232 237 242 244 241 238 238 240 243 247 251 253 255 255 257
272 266 255 251 249 243 238 236 233 230 227 220 221 220 230 232 229 228 223 223 227 227 227 227 228 228 230 228 224 229 240 247 247 245 243 242 244 246 249 251 253 254 256
282 273 265 260 253 245 242 238 232 233 228 223 221 220 219 228 230 222 225 224 225 226 228 227 229 231 231 232 234 227 233 243 250 250 248 248 248 248 249 250 251 253 254
291 283 272 264 256 248 248 241 234 235 231 228 223 230 237 243 229 227 221 222 226 230 232 231 231 231 232 233 235 241 236 239 248 254 253 252 253 253 253 253 253 253 255
305 302 290 278 265 255 252 245 239 234 232 233 229 227 234 238 235 236 238 231 229 231 232 233 237 235 233 235 239 243 239 241 248 254 258 256 255 256 257 259 257 257 256
309 309 299 285 274 267 259 248 240 234 234 235 236 231 227 226 224 231 238 237 239 238 236 235 234 237 238 240 245 246 241 241 246 252 258 262 259 258 259 259 260 259 258
302 304 296 284 271 264 260 253 247 241 235 234 236 236 235 236 237 237 241 244 249 251 247 239 234 233 235 240 247 243 243 242 246 251 256 262 266 263 261 260 260 261 261
294 300 295 283 271 262 256 249 244 244 241 237 239 241 242 244 242 239 237 240 246 251 245 244 242 235 234 240 245 245 249 244 248 252 257 262 269 267 262 262 261 260 260
290 293 294 282 274 264 253 249 241 240 241 242 242 242 243 245 245 245 240 235 237 247 247 245 246 237 245 253 248 248 254 252 251 252 253 257 263 267 262 261 261 259 258
293 290 294 280 270 266 257 245 241 239 239 242 242 241 241 243 243 239 234 233 237 244 253 254 258 261 261 268 261 260 259 257 253 252 254 257 260 263 260 261 262 261 257
299 295 287 284 272 267 261 251 242 240 238 240 239 240 242 244 245 242 238 235 236 241 250 261 267 266 266 265 270 269 269 266 261 254 256 259 261 263 261 260 262 262 260
301 295 286 283 279 272 265 258 248 243 241 242 241 240 243 243 246 245 240 239 240 242 248 258 268 269 272 272 274 277 279 274 271 265 258 259 260 261 262 260 260 260 259
301 298 291 284 282 279 274 263 252 248 246 248 249 247 246 241 243 245 243 243 248 253 253 257 265 271 272 274 281 283 284 283 281 273 265 259 260 263 262 259 257 258 257
301 301 295 286 283 283 286 277 262 256 253 256 254 252 250 245 246 248 244 244 248 251 252 254 262 267 272 278 281 282 288 289 287 283 275 272 270 266 260 257 256 255 255
309 303 297 290 288 288 297 293 283 272 260 259 261 261 257 257 261 256 252 254 249 246 248 254 259 267 270 281 281 284 284 291 288 279 284 283 281 275 266 257 252 253 255
322 322 318 309 298 295 316 309 295 287 278 265 262 263 263 251 245 253 261 267 263 252 255 255 259 260 271 278 286 284 285 288 285 283 291 287 282 278 274 266 263 260 258
322 326 331 329 324 313 305 303 303 288 291 281 267 261 262 268 256 255 261 261 263 268 264 258 258 262 271 278 281 279 279 281 279 287 294 283 281 276 281 278 277 268 263
312 321 324 322 322 333 323 301 306 294 297 308 300 274 263 265 262 261 262 268 276 284 278 266 264 271 277 282 278 276 280 283 285 283 279 276 282 284 288 282 275 267 266
304 312 315 318 322 332 347 341 323 300 302 307 305 303 283 264 278 276 265 268 283 294 302 292 289 285 288 290 287 280 281 286 288 287 284 276 285 292 286 278 277 276 273
293 301 307 310 313 322 347 347 330 301 304 307 310 307 309 298 295 290 272 272 278 292 301 303 296 293 291 289 288 274 274 277 286 283 282 288 288 300 291 276 280 285 279
Height
1510 1510 1512 1513 1515 1516 1517 1519 1520 1522 1523 1525 1526 1528 1529 1530 1531 1532 1533 1533 1534 1535 1536 1537 1538 1538 1539 1539 1540 1540 1540 1541 1541 1541 1541 1541 1540 1540 1540 1539 1538 1538 1537
1505 1506 1507 1509 1510 1511 1513 1515 1516 1518 1519 1521 1522 1524 1525 1526 1527 1528 1529 1530 1531 1532 1533 1534 1535 1536 1536 1537 1537 1538 1538 1538 1538 1539 1539 1539 1538 1538 1538 1537 1537 1536 1536
1500 1501 1502 1504 1505 1507 1509 1510 1512 1513 1515 1516 1518 1519 1521 1522 1523 1524 1525 1526 1527 1528 1529 1530 1531 1532 1533 1533 1534 1535 1535 1535 1536 1536 1536 1536 1536 1536 1536 1535 1535 1534 1534
1496 1497 1498 1499 1501 1502 1504 1505 1507 1508 1510 1511 1513 1515 1516 1517 1519 1520 1521 1522 1523 1524 1525 1526 1527 1528 1529 1530 1531 1531 1531 1532 1533 1533 1533 1533 1533 1533 1533 1533 1532 1532 1531
1492 1492 1493 1494 1496 1498 1499 1500 1502 1503 1505 1507 1508 1510 1511 1512 1514 1515 1516 1518 1519 1519 1521 1522 1523 1524 1525 1526 1527 1527 1528 1528 1529 1529 1530 1530 1530 1530 1530 1530 1530 1529 1529
1487 1488 1489 1490 1491 1492 1494 1495 1497 1498 1500 1502 1504 1505 1506 1507 1509 1509 1511 1512 1513 1514 1516 1517 1518 1519 1520 1521 1522 1523 1524 1524 1525 1525 1526 1526 1526 1526 1526 1526 1526 1526 1525
1483 1484 1484 1485 1486 1487 1489 1491 1493 1494 1495 1498 1499 1500 1501 1502 1503 1504 1505 1507 1508 1509 1510 1512 1513 1514 1514 1515 1517 1518 1519 1519 1520 1521 1521 1521 1522 1522 1522 1522 1522 1522 1521
1479 1479 1480 1481 1481 1483 1484 1486 1487 1489 1490 1492 1494 1495 1496 1498 1497 1498 1499 1501 1502 1503 1504 1506 1507 1508 1509 1510 1511 1512 1513 1514 1515 1515 1516 1516 1517 1517 1517 1517 1517 1517 1517
1475 1475 1476 1476 1477 1478 1479 1480 1482 1484 1485 1487 1489 1490 1490 1490 1492 1493 1493 1495 1496 1497 1499 1500 1501 1502 1504 1504 1505 1506 1507 1508 1509 1510 1510 1511 1511 1512 1512 1512 1512 1512 1512
1471 1471 1471 1472 1473 1474 1474 1475 1477 1478 1480 1481 1483 1484 1485 1485 1487 1487 1488 1489 1490 1491 1493 1494 1495 1496 1498 1498 1499 1500 1501 1502 1503 1504 1504 1505 1505 1506 1506 1506 1506 1506 1506
1468 1467 1468 1468 1469 1469 1470 1471 1472 1473 1475 1476 1477 1478 1479 1480 1482 1483 1483 1484 1484 1485 1487 1488 1489 1490 1491 1492 1493 1494 1495 1496 1497 1498 1498 1498 1499 1499 1500 1500 1500 1500 1500
1464 1464 1464 1464 1464 1465 1465 1466 1467 1468 1469 1470 1472 1473 1474 1475 1476 1478 1478 1478 1478 1479 1480 1481 1482 1484 1485 1486 1487 1488 1489 1489 1490 1491 1491 1491 1492 1492 1493 1493 1493 1494 1494
1460 1460 1460 1460 1460 1460 1460 1461 1462 1463 1464 1465 1466 1467 1468 1470 1472 1473 1473 1473 1474 1474 1474 1475 1476 1477 1478 1480 1480 1481 1482 1483 1483 1484 1484 1484 1485 1485 1486 1486 1486 1486 1487
1457 1456 1456 1455 1455 1456 1456 1456 1457 1458 1458 1459 1461 1462 1463 1464 1466 1467 1468 1469 1469 1469 1469 1469 1470 1471 1472 1473 1474 1475 1475 1476 1476 1476 1476 1476 1476 1477 1478 1478 1479 1479 1479
1454 1453 1452 1451 1451 1451 1451 1451 1452 1453 1454 1454 1455 1456 1458 1459 1460 1461 1462 1463 1465 1464 1463 1464 1464 1465 1466 1467 1468 1468 1468 1469 1469 1469 1469 1469 1468 1469 1469 1470 1470 1471 1471
1451 1449 1448 1447 1447 1446 1446 1447 1447 1448 1449 1449 1450 1451 1452 1453 1454 1456 1456 1457 1458 1459 1458 1458 1459 1460 1460 1461 1461 1461 1461 1462 1462 1461 1461 1461 1461 1461 1461 1461 1462 1462 1462
1447 1445 1444 1443 1443 1442 1442 1442 1442 1443 1444 1444 1445 1446 1447 1448 1449 1450 1450 1451 1451 1453 1452 1452 1453 1454 1454 1454 1455 1455 1455 1454 1454 1453 1453 1453 1453 1453 1453 1453 1453 1453 1454
1443 1442 1441 1440 1439 1438 1438 1438 1438 1438 1439 1439 1440 1441 1441 1442 1443 1444 1445 1445 1445 1446 1446 1446 1447 1448 1448 1448 1448 1448 1448 1447 1446 1446 1446 1445 1444 1445 1444 1444 1444 1444 1445
1440 1439 1437 1437 1436 1435 1434 1434 1434 1434 1434 1435 1435 1436 1436 1437 1438 1439 1439 1439 1440 1440 1441 1441 1440 1442 1442 1442 1441 1441 1441 1440 1439 1439 1438 1437 1437 1436 1436 1436 1436 1436 1436
1436 1435 1434 1433 1432 1431 1431 1430 1430 1430 1430 1430 1430 1431 1432 1432 1433 1433 1433 1434 1434 1435 1436 1436 1435 1436 1436 1435 1435 1435 1434 1433 1432 1431 1430 1429 1429 1428 1428 1427 1428 1428 1427
1433 1432 1431 1430 1429 1428 1427 1427 1426 1426 1426 1426 1426 1426 1427 1427 1427 1428 1429 1429 1429 1429 1430 1430 1430 1430 1430 1429 1429 1428 1428 1426 1425 1424 1423 1422 1421 1420 1419 1419 1418 1419 1419
1430 1428 1427 1426 1425 1425 1424 1423 1423 1422 1422 1422 1422 1422 1423 1423 1423 1423 1424 1424 1425 1425 1424 1425 1424 1424 1424 1424 1424 1423 1422 1421 1418 1419 1417 1415 1415 1412 1412 1411 1410 1410 1410
1427 1426 1424 1423 1422 1421 1421 1421 1420 1419 1419 1418 1419 1419 1419 1419 1419 1419 1419 1419 1420 1420 1420 1421 1420 1419 1419 1419 1419 1418 1417 1415 1413 1412 1411 1407 1407 1405 1404 1403 1402 1402 1402
1426 1424 1422 1421 1419 1418 1418 1418 1417 1417 1416 1416 1415 1415 1415 1415 1415 1415 1415 1414 1414 1415 1415 1416 1415 1414 1414 1414 1414 1413 1411 1409 1408 1407 1405 1402 1399 1398 1396 1395 1394 1394 1393
1424 1422 1421 1419 1417 1417 1416 1416 1415 1414 1414 1413 1413 1413 1412 1412 1411 1411 1411 1410 1410 1411 1411 1411 1410 1410 1409 1409 1408 1407 1406 1404 1401 1399 1399 1397 1393 1391 1388 1387 1386 1385 1385
1422 1421 1419 1418 1416 1416 1415 1414 1414 1413 1412 1411 1411 1410 1409 1408 1408 1408 1408 1407 1406 1406 1406 1406 1406 1405 1404 1403 1403 1402 1400 1399 1396 1393 1392 1392 1388 1386 1381 1379 1379 1378 1377